Powrót do katalogu

STARLINK-3644

AktywnyŁącznośćVLEO
NORAD 51987·PAYLOAD·🇺🇸 United States

Wystrzelony Mar 9, 2022 z Cape Canaveral Space Force Station

Loading…

Następne Przeloty (najbliższe 24 godziny)

TLE

ŚwieżeSource: CelesTrak SupGP

Epoka: Sep 14, 2026, 21:56 UTC

1 51987C 22025AH  26257.91437500  .00046518  00000+0  13747-2 0  2576
2 51987  53.1572 253.7496 0001271  94.3271 285.3473 15.34359691    17

Śledź STARLINK-3644 w czasie rzeczywistym z AllMySat

Download on the App Store